Location: Perryvale
(54.4667°N, 113.3833°W)
Time: 22:43:55
(UTC+00:00)

SR - Pass Details

Date: 19 May 2024
Orbit: 580 x 858 km, 66.7° (Epoch: 13 June)

Event Time Altitude Azimuth Distance (km) Brightness Sun altitude
Rises 06:39:12 0° 298° (WNW) 3,056 ? -14.8°
Reaches altitude 10° 06:42:18 10° 317° (NW) 2,083 ? -14.9°
Maximum altitude 06:45:29 18° 0° (N) 1,576 ? -15.0°
Drops below altitude 10° 06:48:33 10° 44° (NE) 1,985 ? -15.1°
Sets 06:51:25 0° 64° (ENE) 2,854 ? -15.2°
